sat.trackr.live / text

‹ back to catalog

STARLINK-5013

NORAD 55492 · 2023-015AV

PAYLOAD ACTIVE UNKNOWN

§ Identity

Operator
Country
US
Launch date
2023-02-02
Launch site
AFETR
Launch vehicle
Mass (kg)
RCS (m²)

Purposes: comms

External: N2YO · Heavens-Above · Gunter

§ Orbital elements

Epoch: 2026-09-20T20:41:53.830176Z

Period
94.27 min
Inclination
43.0030°
Eccentricity
0.0001090
Mean motion
15.27575952 rev/d
Perigee alt
482.3 km
Apogee alt
483.8 km
Semi-major
6,861.2 km
B*
-7.5417e-6
RAAN
317.5516°
Arg perigee
290.5229°
Mean anomaly
69.5506°
Rev number
20,044

§ Raw data

STARLINK-50131 55492U 23015AV  26263.86242859 -.00000470  00000+0 -75417-5 0  99902 55492  43.0030 317.5516 0001090 290.5229  69.5506 15.27575952200443

JSON: /api/v1/satellites/55492 · /tle

For live sub-satellite position, see the globe view (requires WebGL).

§ Visibility from observer

Set your observer location to see the next 7 days of passes ≥ 10°. The values pass through the URL so the page stays shareable.

No JS? Fill the form by hand. The geolocation button needs JavaScript.